Regional Weather Roundup
Issued by NWS

Home | Current Version | Previous Version | Text Only | Print | Product List | Glossary On
Versions: 1 2 3 4 5 6 7 8 9 10 11 12 13 14 15 16 17 18 19 20 21 22 23 24 25 26 27 28 29 30 31 32 33 34 35 36 37 38 39 40 41 42 43 44 45 46 47 48 49 50
000
ASHW40 PHFO 212143
RWRHI

WEATHER ROUNDUP FOR HAWAII
NATIONAL WEATHER SERVICE HONOLULU HI
1100 AM HST SAT OCT 21 2017

THIS IS AN AUTOMATED REPORT THAT HAS NOT BEEN QUALITY CONTROLLED.

NOTE..."FAIR" INDICATES FEW OR NO CLOUDS BELOW 12,000 FEET WITH NO
SIGNIFICANT WEATHER AND/OR OBSTRUCTIONS TO VISIBILITY.

* - THESE SITES REPORT LIMITED FIELDS
# - BUOY DATA PROVIDED BY PACIFIC ISLANDS OCEAN OBSERVING SYSTEM.

HIZ001>004-212200-
KAUAI-NIIHAU-

CITY           SKY/WX    TMP DP  RH WIND       PRES   REMARKS
LIHUE APT      SUNNY     83  71  67 NE14      30.07F
PORT ALLEN*      N/A     82 N/A N/A NE15G21     N/A
POIPU*           N/A     79 N/A N/A E7G15       N/A
PRINCEVILLE*     N/A     79 N/A N/A E8G15       N/A
KOKOLE POINT*  NOT AVBL
MOLOAA DAIRY*    N/A     81  73  78 E3G15       N/A
WAIMEA HTS*      N/A     84  66  54 E13G18      N/A
PUU OPAE*        N/A     75  66  73 W5          N/A
PUU LUA*       NOT AVBL
MAKAHA RIDGE*    N/A     75  68  78 W2          N/A
$$

HIZ005>011-212200-
OAHU-

CITY           SKY/WX    TMP DP  RH WIND       PRES   REMARKS
HONOLULU       MOSUNNY   85  64  49 E15       30.03F
KALAELOA       MOSUNNY   86  63  45 E13G18    30.04F
KANEOHE MCB    MOSUNNY   83  69  62 E14       30.03F
WHEELER FIELD  PTSUNNY   79  66  65 NE10      30.05
BELLOWS*         N/A    N/A N/A N/A NE15        N/A
KAHUKU*          N/A    N/A N/A N/A NE12G22     N/A
WHEELER*         N/A    N/A N/A N/A E1          N/A
WAIANAE HARBOR   N/A    N/A N/A N/A E10G17      N/A
DILLINGHAM*      N/A     64  50  59 SW8G15      N/A
KAHUKU TRN*      N/A     82  68  61 W9G25       N/A
KAWAILOA*        N/A     73  64  73 E14G22      N/A
KII*             N/A     81  70  69 E18G24      N/A
MAKUA RANGE*     N/A     84  61  45 W8G21       N/A
OAHU FOREST NW   N/A     73  64  73 E13G26      N/A
SCHOFIELD BRK*   N/A     81  63  54 MISG        N/A
SCHOFIELD S*   NOT AVBL
WAIANAE VLY*     N/A     84  63  48 SE3G15      N/A
KUAOKALA*        N/A     79  64  61 E16G29      N/A
HONOULIUULI*   NOT AVBL
MOKUOLOE IS*   NOT AVBL
PALEHUA*         N/A     77  59  53 E8G18       N/A
WAIAWA PHB*    NOT AVBL
$$

HIZ012>013-212200-
MOLOKAI-

CITY           SKY/WX    TMP DP  RH WIND       PRES   REMARKS
MOLOKAI AIRPT  PTSUNNY   81  70  69 NE21G28   30.05F
KALAUPAPA      NOT AVBL
MAKAPULAPAI*     N/A     81  73  78 E17G24      N/A
MOLOKAI 1*       N/A     73  64  73 E3          N/A
PUU ALII*        N/A     63  63 100 N2G12       N/A
$$

HIZ016-212200-
KAHOOLAWE-

CITY           SKY/WX    TMP DP  RH WIND       PRES   REMARKS
KAHOOLAWE*     NOT AVBL
HAKIOAWA*        N/A     79  72  78 MISG      30.44F
HONOKANAIA*      N/A     83  68  60 NE18G32   29.97S
KANELOA*         N/A     79  70  73 E18G32    30.11
KEALIALALO*    NOT AVBL
LUA MAKIKA*    NOT AVBL
$$

HIZ014>015-212200-
LANAI-

CITY           SKY/WX    TMP DP  RH WIND       PRES   REMARKS
LANAI CITY     PTSUNNY   75  66  73 VRB3      30.09F
LANAI 1*       NOT AVBL
$$

HIZ017>028-212200-
MAUI-

CITY           SKY/WX    TMP DP  RH WIND       PRES   REMARKS
KAHULUI        MOSUNNY   84  72  67 NE21      30.03F
KAPALUA-W MAUI LGT RAIN  77  68  73 NE14      30.05
HANA AIRPORT   NOT AVBL
HANA*            N/A     81 N/A N/A E8          N/A
HALEAKALA SUMM   N/A     50  41  71 E20         N/A
MAALAEA BAY*     N/A     86 N/A N/A NE13G22     N/A
HALEAKALA*     NOT AVBL
KAUPO GAP*     NOT AVBL
KULA 1*          N/A     62  57  83 NW5G10      N/A
$$

HIZ023>026-212200-
BIG ISLAND OF HAWAII COAST AND LOWER SLOPES-

CITY           SKY/WX    TMP DP  RH WIND       PRES   REMARKS
KAILUA KONA    MOSUNNY   83  68  60 W9        29.99F
HILO           SUNNY     78  70  76 SW5       30.04F
HONOKAA*         N/A     77 N/A N/A VRB1        N/A
KAWAIHAE MWT*    N/A     86 N/A N/A E13G23      N/A
KAWAIHAE*        N/A     84 N/A N/A E12       29.98F
SOUTH POINT*     N/A     81 N/A N/A N21G30      N/A
UPOLU AIRPORT* NOT AVBL
KAMUELA*         N/A     77  63  61 NE18      30.11F
HAKALAU*         N/A     66  53  63 S3          N/A
KALOKO-HONOKO*   N/A     88  70  55 W8        29.98  HX  92
PALI 2*          N/A    N/A N/A N/A SW14G22     N/A
KEALAKOMO*       N/A     88  64  45 N17G25      N/A
KAUPULEHU*       N/A     81  64  57 SW5G10      N/A
KAPAPALA*        N/A     83  61  47 SE8G21      N/A
LOWER KAHUKU*    N/A    108 N/A N/A E3G12       N/A
PUHE CS*         N/A     88  63  42 E10G20      N/A
PUHO CS*         N/A     85  69  57 W3G12       N/A
PTA KEAMUKU*     N/A    N/A N/A N/A N12G21      N/A
WAIKOLOA*        N/A     81  64  57 NW6G12      N/A
$$

HIZ027>028-212200-
BIG ISLAND OF HAWAII INTERIOR AND SUMMMITS-

CITY           SKY/WX    TMP DP  RH WIND       PRES   REMARKS
BRADSHAW FIELD SUNNY     70  51  49 S10G17    30.33F
MK VISITOR CEN   N/A     57  43  58 SE13        N/A
MAUNA KEA*       N/A     16 N/A N/A NE10        N/A  WCI   3
MAUNA LOA*       N/A    N/A N/A N/A MISG        N/A
MAUNA LOA 1*   NOT AVBL
PTA KIPUKA*      N/A     77  63  61 S8G16       N/A
PTA RANGE 17*    N/A     75  63  64 SE9G15      N/A
PTA WEST*        N/A     79  66  65 NW9G15      N/A
NENE CABIN*      N/A     57  50  77 E9G18       N/A
AHUMOA*          N/A     65  58  77 NW8         N/A
PTA PORTABLE*  NOT AVBL
PUU MALI*        N/A     66  39  37 E25G35      N/A
$$

HIC003-212200-
NORTHWEST ISLANDS-

CITY           SKY/WX    TMP DP  RH WIND       PRES   REMARKS
MIDWAY ISLAND  MOSUNNY   81  73  78 SE6       30.12F HAZE
MIDWAY NOS*      N/A     79 N/A N/A MISG      30.10F
FRENCH FRIGATE NOT AVBL
$$

PHZ110>124-180-212200-
BUOY REPORTS

STATION/POSITION TIME  TEMP    WIND        PRES    WAVE   SWELL
                       AIR SEA DIR/SP/G            HT/PER HT/DIR
                 (UTC) (F)     (DEG/KT/KT) (MB)    (FT/S) (FT/D)
BUOY 51001       2120   78 80   70/ 16/ 19 1018.9
BUOY 51101       2050   78 80   70/ 17/ 21 1019.3F   7/ 9   5/ 80
BUOY 51100       NOT AVBL
BUOY 51002       2120   80 80   70/ 17/ 21 1014.6
BUOY 51003       2050   78 81   70/ 16/ 19 1015.5F  10/ 9   8/ 70
BUOY 51004       2120   78 80   60/ 10/ 12 1014.7
WAIMEA BAY#      2102      78                N/A     7/ 8   3/340
MOKAPU POINT#    2104      80                N/A     8/ 8   3/ 10
LANAI#           NOT AVBL
BARBERS PT 2#    NOT AVBL
PAUWELA#         NOT AVBL
HILO#            2127      80                N/A     9/ 9   5/ 20
KANEOHE BAY#     NOT AVBL
KANEOHE BAY 2#   NOT AVBL
HANALEI#         2122      80                N/A     8/ 9   3/350
KAHULUI HARBOR   2112   78 78   30/ 14/ 18 1017.0
HONOLULU HARBOR  2112   83 80  120/  6/  9 1017.7
PEARL HARBOR#    2100      80                N/A     2/ 6   2/150
KILO NALU        NOT AVBL
HILO HARBOR      2112   81 79  290/  2/  3 1016.7
MOKUOLOE         2036   80 78   60/ 12/ 14 1017.7F
NAWILIWILI       2112   79 81   50/ 12/ 15 1017.8
WHOTS BUOY       NOT AVBL
BUOY 51028       NOT AVBL
$$

......................KEY........................................
  SKY/WX - SKY CONDITIONS/PRESENT WEATHER
  TMP    - TEMPERATURE IN FAHRENHEIT
  DWPT   - DEWPOINT IN FAHRENHEIT
  RH     - RELATIVE HUMIDITY IN PERCENT
  WIND   - DIRECTION AND SPEED /MPH FOR ISLANDS...KTS FOR BUOYS/
  PRES   - MEAN SEA LEVEL PRESSURE IN INCHES OF HG
  VSB    - VISIBILITY IN MILES
  HX     - HEAT INDEX
  WCI    - WIND CHILL INDEX
  VRB    - VARIABLE WIND DIRECTION
  N/A    - NOT AVAILABLE




USA.gov is the U.S. government's official web portal to all federal, state and local government web resources and services.